Notices

What's New in latest Release from April 7th, 2021:

- Updated Glossary, including Speed of Maximum Gust, and Total Hourly Precipitation

- Updated national and regional climate services offices contacts and prices information

- Addition of station inventory lists for 1981-2010, 1971-2000, and 1961-1990 Normals.

If you haven't already, please take our survey and provide feedback about our website: https://eccc.sondage-survey.ca/f/LanguageSelection.aspx?s=442ca660-fcf1-47c0-95a9-59707d6fd709

Hourly Data Report for September 03, 2017

VICTORIA UNIVERSITY CS
BRITISH COLUMBIA

48°27'25.200" N
123°18'16.600" W
60.10 m
1018598
71783
WYJ

Download Data

Hourly Data (September 2017)
Hourly Data Report for September 3, 2017
TIME
LST
Temp Definition
°C
Dew Point Definition
°C
Rel Hum Definition
%
Precip. Amount Definition
mm

Wind Dir Definition
10's deg

Wind Spd Definition
km/h
Visibility Definition
km
Stn Press Definition
kPa
Hmdx Definition


Wind Chill Definition


Weather Definition


00:00 16.2 14.4 89 0.0 0 1   100.75     LegendNANA
01:00 14.2 12.8 91 0.0 3 1   100.79     LegendNANA
02:00 14.5 12.7 89 0.0 3 1   100.81     LegendNANA
03:00 14.4 13.1 92 0.0   0   100.83     LegendNANA
04:00 14.0 12.8 92 0.0 32 3   100.84     LegendNANA
05:00 14.9 13.2 90 0.0 29 3   100.85     LegendNANA
06:00 16.1 13.1 83 0.0 33 4   100.89     LegendNANA
07:00 18.5 14.4 77 0.0 1 6   100.93     LegendNANA
08:00 21.6 14.4 64 0.0 2 6   100.97 25   LegendNANA
09:00 23.3 15.0 59 0.0 1 8   101.00 27   LegendNANA
10:00 24.3 15.3 57 0.0 1 10   101.02 28   LegendNANA
11:00 25.1 16.0 57 0.0 35 12   101.02 30   LegendNANA
12:00 26.0 15.9 54 0.0 36 10   101.01 31   LegendNANA
13:00 28.5 14.9 44 0.0 7 4   101.01 32   LegendNANA
14:00 29.0 14.1 40 0.0 2 5   100.98 32   LegendNANA
15:00 28.9 13.9 40 0.0 36 7   100.95 32   LegendNANA
16:00 27.0 15.5 50 0.0 8 4   100.93 31   LegendNANA
17:00 29.2 15.3 43 0.0 24 3   100.91 33   LegendNANA
18:00 26.4 14.5 48 0.0 26 3   100.89 30   LegendNANA
19:00 23.6 14.4 56 0.0 24 5   100.90 27   LegendNANA
20:00 21.2 14.3 65 0.0 25 2   100.94 25   LegendNANA
21:00 19.0 14.2 74 0.0 0 1   100.95     LegendNANA
22:00 18.4 14.4 77 0.0   0   100.97     LegendNANA
23:00 17.2 13.9 81 0.0 31 3   101.00     LegendNANA

Notes on Data Quality.

Legend

  • E = Estimated
  • M = Missing
  • NA = Not Available*
  • [empty] = Indicates an unobserved value
Date modified: